Temp
12 12 11 11 12 11 11 11 11 11 11 9 9 9 9 10 10 10 10 10 11 10 10 10 10 11 11 12 12 12 13 13 13 13 13 12 12 13 13 13 14 14 14 13 12 13 13 14 14 14 14 14 14 14 14 13 13 13 13 13 13 13 12
11 11 11 11 11 11 11 11 11 11 11 11 10 9 9 10 10 10 10 10 10 10 10 10 10 10 10 10 11 11 12 12 13 13 13 13 13 13 13 13 14 14 13 14 13 13 13 14 14 15 14 14 14 14 14 14 13 13 13 13 13 13 12
11 11 11 10 11 11 11 11 11 11 10 10 10 10 10 10 10 10 10 10 10 10 11 11 10 10 10 10 10 11 11 12 12 12 12 12 12 12 12 13 13 13 13 13 14 14 13 13 14 14 14 14 14 14 14 14 14 13 13 13 13 13 13
11 11 11 10 10 11 10 10 10 10 10 10 10 10 10 10 10 10 10 10 10 10 10 10 10 10 10 9 9 10 11 11 11 12 12 12 12 12 12 12 12 13 13 13 13 13 13 13 13 14 14 14 14 13 14 14 14 14 13 13 13 13 13
11 11 11 10 10 10 10 10 10 10 9 9 9 9 9 10 10 10 10 10 10 10 10 10 10 10 10 10 10 10 10 10 11 11 11 12 12 12 12 12 12 13 13 13 13 13 13 13 13 13 14 15 15 14 14 14 14 14 14 13 13 13 13
11 11 11 11 10 10 10 10 10 10 9 9 9 9 9 9 10 10 10 10 10 10 10 10 10 10 10 10 10 10 10 10 10 11 11 11 11 12 12 12 12 12 12 12 12 13 13 13 13 13 14 14 15 15 14 14 13 13 14 14 13 13 13
11 11 11 11 10 10 10 10 10 10 10 9 9 9 9 9 9 9 9 9 9 10 10 10 10 10 10 9 9 10 10 10 10 10 11 11 11 11 11 12 12 12 12 12 12 12 12 12 13 13 14 14 14 14 14 14 14 13 13 14 14 13 13
11 11 11 10 10 10 10 10 10 10 10 9 9 9 8 9 9 9 9 9 9 9 9 9 9 9 9 9 9 9 10 10 10 10 10 10 10 11 11 11 11 11 12 12 12 12 12 12 12 13 13 13 13 13 13 14 14 14 13 13 13 13 13
11 10 10 10 10 10 10 10 10 10 10 9 9 9 8 8 8 8 9 9 9 8 8 8 9 9 9 9 9 9 9 9 9 9 10 10 10 10 11 11 11 11 12 12 12 12 12 12 12 12 12 12 12 12 13 13 14 15 14 13 13 13 13
10 10 10 10 10 10 10 10 10 9 9 9 9 9 8 8 8 8 8 8 8 7 7 7 7 7 8 8 8 9 9 9 8 9 9 9 10 10 10 11 11 11 11 11 12 12 12 12 12 12 12 12 12 11 12 12 14 15 16 14 13 13 13
10 10 10 10 10 10 10 10 9 9 9 9 8 8 8 8 8 8 7 7 7 6 6 6 5 6 6 7 8 8 8 7 7 8 8 9 9 9 10 10 11 11 11 11 12 12 12 12 12 12 12 12 12 12 12 12 13 15 16 15 13 12 12
10 10 10 10 10 10 9 9 9 9 9 9 8 8 8 8 7 7 7 7 7 6 6 5 4 4 5 6 7 8 8 7 7 7 8 8 9 9 9 10 10 11 11 11 12 12 12 12 12 12 12 12 12 12 12 12 12 13 15 15 14 13 12
10 10 10 10 9 9 9 9 9 9 9 9 8 8 8 7 7 7 7 7 7 6 6 5 4 4 4 4 5 6 7 7 7 7 7 7 8 9 9 10 10 10 11 11 11 12 12 11 11 11 11 11 11 12 12 12 12 12 13 14 14 13 13
10 9 9 9 9 9 9 9 9 9 9 8 8 8 7 7 6 6 6 6 6 6 6 5 4 3 3 4 4 4 5 6 6 6 6 6 7 8 9 9 10 10 11 11 11 11 11 11 11 11 11 11 11 11 11 11 11 12 12 12 13 13 13
9 9 9 9 9 9 9 9 9 8 8 8 7 7 7 6 6 6 5 5 5 5 5 5 3 3 3 3 3 4 4 4 5 6 6 6 7 8 8 9 9 10 10 11 11 11 11 11 11 11 11 11 11 11 11 11 11 12 12 12 12 12 12
9 9 9 9 9 9 8 8 8 8 8 7 7 6 6 6 5 5 5 5 4 4 4 4 3 2 3 3 3 4 4 3 3 4 5 7 7 8 8 8 9 9 10 10 11 11 11 11 11 11 11 11 11 11 11 11 11 11 11 12 11 12 12
9 8 8 8 8 8 8 8 8 7 7 7 6 6 5 5 5 5 5 4 4 3 3 3 3 2 2 3 3 3 4 4 3 3 4 6 7 8 9 9 9 9 9 9 10 10 11 11 11 11 11 11 11 11 11 11 11 11 11 11 11 11 11
8 8 8 8 8 8 8 7 7 7 6 6 6 5 5 5 5 4 4 4 4 3 3 2 2 2 2 3 3 3 3 3 3 3 4 4 6 7 8 9 9 9 9 9 10 10 10 11 11 11 11 11 11 11 11 11 11 11 11 11 11 11 11
8 8 8 8 7 7 7 7 7 6 6 6 6 5 5 5 4 4 4 3 3 3 2 2 2 2 3 3 3 3 3 3 3 3 4 4 4 5 7 8 9 9 9 9 9 10 10 10 11 11 11 11 11 11 11 11 11 11 11 11 11 11 11
8 7 7 7 7 7 7 7 6 6 6 6 6 6 5 5 4 4 3 3 2 2 2 2 2 2 3 3 3 3 3 3 3 3 3 4 4 4 5 6 8 9 9 8 8 9 10 10 10 11 11 11 11 11 11 11 11 11 10 10 10 10 11
8 7 7 7 7 7 6 6 6 6 6 6 6 6 5 4 3 3 3 2 2 1 1 1 2 2 3 3 2 2 2 2 2 2 3 3 4 4 4 5 6 8 8 8 8 8 9 10 10 10 10 11 11 11 11 11 11 10 10 10 10 10 10
7 7 7 7 7 6 6 6 6 6 6 6 5 5 4 3 3 3 2 2 2 2 2 2 2 2 3 2 2 2 2 2 2 2 2 2 3 3 3 4 5 6 8 8 9 8 9 9 9 10 10 10 10 10 11 11 11 10 10 10 10 10 10
7 7 7 7 6 6 6 6 6 6 6 5 4 3 3 2 2 2 2 2 2 2 2 1 2 2 2 2 1 1 1 1 1 1 2 2 2 2 2 3 4 4 5 6 7 8 9 9 9 10 10 10 10 10 10 10 10 10 10 10 11 10 10
7 7 6 6 6 6 6 6 5 5 5 4 3 3 2 2 2 1 1 2 2 1 1 1 1 1 1 1 1 1 1 1 1 1 1 1 1 2 2 2 3 3 4 5 6 7 9 9 10 10 10 10 10 10 10 10 10 10 10 10 10 10 10
7 6 6 6 6 6 5 5 5 4 4 3 3 3 2 2 1 1 1 1 1 1 1 1 1 1 1 1 1 0 0 0 0 0 0 0 1 1 1 2 2 2 3 4 5 6 7 8 9 9 10 10 10 10 10 10 10 9 9 10 10 10 10
6 6 6 6 6 6 5 5 4 4 3 3 3 3 2 1 1 1 1 0 0 -0 -0 0 0 1 1 1 1 0 0 0 0 -0 0 0 0 0 1 1 1 2 2 3 4 4 5 6 7 8 9 9 10 10 10 10 10 10 10 9 10 10 10
6 6 6 6 6 5 5 4 4 3 3 3 3 2 2 1 1 1 0 0 -0 -0 -0 -0 -0 -0 0 -0 -0 -0 -0 -0 -0 -0 -0 -0 -0 -0 0 0 1 1 1 2 3 4 4 5 6 6 7 8 9 10 10 10 10 10 10 10 9 10 10
6 6 6 5 5 5 4 4 4 3 3 3 3 2 2 1 1 0 0 0 -0 -0 -0 -1 -1 -1 -1 -1 -1 -2 -1 -1 -1 -1 -1 -1 -1 -1 -0 -0 0 0 0 1 2 3 4 5 5 6 7 8 8 9 9 10 10 10 10 10 10 10 10
6 6 6 5 5 4 4 4 4 3 3 3 2 2 1 1 1 0 0 0 -0 -0 -1 -1 -1 -1 -1 -1 -2 -2 -2 -2 -2 -2 -2 -1 -1 -1 -1 -1 -0 0 0 0 1 2 4 5 5 6 7 8 8 8 9 9 10 10 10 10 10 10 10
6 5 5 5 5 4 4 4 4 3 3 3 2 1 1 1 0 0 0 -0 -0 -0 -1 -1 -1 -1 -2 -2 -2 -2 -2 -2 -2 -2 -2 -2 -1 -1 -1 -1 -1 -0 -0 -0 0 1 3 5 5 6 7 7 8 8 9 9 9 9 10 10 10 10 10
6 5 5 5 4 4 4 3 3 3 3 2 1 1 1 0 0 0 -0 -0 -1 -1 -1 -1 -2 -2 -2 -2 -2 -2 -2 -2 -3 -3 -2 -2 -2 -1 -1 -1 -1 -1 -1 -0 -0 -0 1 4 5 5 6 7 7 8 8 9 9 10 10 10 10 10 10
6 5 5 4 4 4 3 3 3 2 2 2 1 1 0 -0 -0 -0 -1 -1 -1 -1 -2 -2 -2 -2 -2 -2 -3 -3 -3 -3 -3 -3 -3 -2 -2 -2 -2 -1 -1 -1 -1 -1 -0 -0 0 2 4 4 5 5 6 7 8 9 9 10 10 10 10 10 10
5 5 4 4 4 3 3 3 2 2 2 1 1 0 -0 -1 -1 -1 -1 -1 -2 -2 -2 -2 -2 -3 -3 -3 -3 -3 -3 -3 -3 -3 -2 -2 -2 -2 -2 -2 -1 -1 -1 -1 -1 -0 -0 1 2 3 4 4 5 6 7 8 9 9 9 10 10 10 10
5 5 4 4 3 3 3 2 2 2 1 1 0 -0 -1 -1 -1 -1 -2 -2 -2 -2 -3 -3 -3 -3 -3 -3 -3 -3 -3 -3 -3 -3 -2 -2 -2 -2 -2 -2 -2 -1 -1 -1 -1 -0 -0 1 2 2 3 4 5 6 6 7 8 9 9 9 9 10 10
5 4 4 3 3 3 3 2 2 2 1 0 -0 -1 -1 -1 -2 -2 -2 -3 -3 -3 -3 -3 -3 -3 -3 -3 -3 -4 -3 -3 -3 -3 -3 -2 -2 -2 -2 -2 -2 -1 -1 -0 -0 -0 0 0 1 1 2 4 5 6 6 6 7 8 8 9 9 9 9
5 4 4 4 3 3 3 3 2 1 1 -0 -1 -1 -2 -2 -2 -3 -3 -3 -3 -3 -3 -3 -3 -3 -3 -3 -4 -4 -4 -4 -3 -3 -3 -3 -2 -2 -2 -2 -2 -1 -1 -1 -0 0 0 0 1 1 2 4 5 6 5 5 6 7 7 8 8 9 9
5 5 4 4 4 3 3 3 2 1 1 -0 -1 -1 -2 -2 -3 -3 -3 -4 -4 -4 -4 -4 -4 -3 -3 -4 -4 -4 -4 -4 -3 -3 -3 -3 -3 -2 -2 -2 -2 -1 -1 -1 0 1 1 1 1 2 2 4 5 5 5 4 5 6 7 8 8 8 9
Height
1522 1522 1522 1522 1522 1522 1522 1521 1521 1520 1520 1520 1520 1520 1520 1521 1522 1522 1523 1523 1524 1525 1525 1526 1527 1528 1528 1529 1529 1529 1530 1530 1531 1531 1532 1533 1534 1536 1537 1538 1539 1541 1543 1543 1544 1544 1545 1545 1545 1545 1545 1545 1545 1545 1545 1545 1545 1545 1546 1546 1547 1548 1548
1521 1521 1521 1521 1521 1521 1521 1521 1521 1520 1520 1520 1520 1520 1520 1520 1520 1521 1521 1521 1521 1522 1522 1523 1524 1525 1525 1526 1526 1527 1527 1527 1528 1528 1529 1530 1531 1532 1533 1535 1536 1538 1539 1541 1541 1542 1543 1543 1543 1542 1542 1543 1543 1543 1543 1543 1543 1544 1544 1544 1545 1545 1546
1520 1520 1521 1520 1520 1520 1520 1520 1520 1520 1520 1520 1520 1520 1520 1520 1520 1520 1520 1520 1520 1519 1520 1520 1521 1522 1522 1523 1523 1524 1524 1524 1525 1525 1526 1527 1528 1529 1530 1531 1533 1534 1535 1537 1538 1539 1540 1540 1540 1540 1540 1541 1542 1542 1541 1541 1541 1541 1541 1541 1542 1542 1543
1519 1519 1519 1519 1519 1519 1519 1519 1519 1520 1520 1520 1519 1519 1519 1519 1519 1519 1518 1518 1518 1518 1518 1518 1518 1519 1519 1520 1520 1521 1521 1522 1522 1523 1523 1524 1525 1526 1526 1527 1528 1529 1531 1532 1534 1536 1537 1537 1537 1537 1537 1538 1540 1541 1540 1538 1538 1538 1539 1539 1539 1539 1540
1517 1518 1518 1518 1518 1518 1518 1519 1519 1519 1519 1519 1519 1519 1518 1518 1518 1518 1517 1517 1517 1517 1516 1516 1516 1516 1516 1516 1517 1517 1518 1519 1520 1520 1520 1521 1522 1523 1523 1524 1524 1526 1527 1529 1531 1532 1533 1533 1534 1534 1535 1536 1538 1539 1539 1538 1537 1537 1537 1537 1536 1536 1537
1515 1516 1516 1517 1517 1517 1517 1517 1517 1518 1518 1518 1518 1518 1518 1517 1517 1517 1516 1516 1516 1515 1515 1515 1514 1514 1514 1514 1514 1514 1515 1515 1517 1517 1517 1518 1519 1519 1520 1521 1522 1522 1523 1525 1527 1528 1530 1531 1531 1532 1533 1534 1534 1534 1535 1536 1536 1536 1535 1535 1534 1533 1534
1514 1514 1515 1515 1515 1516 1516 1516 1516 1516 1517 1517 1517 1516 1516 1516 1516 1515 1515 1515 1515 1514 1514 1513 1512 1512 1512 1511 1511 1512 1512 1513 1513 1514 1515 1515 1516 1517 1517 1518 1518 1519 1520 1522 1523 1524 1526 1527 1528 1529 1530 1531 1531 1531 1531 1532 1534 1534 1533 1533 1532 1532 1532
1512 1513 1513 1514 1514 1514 1515 1515 1515 1515 1515 1515 1515 1515 1514 1514 1514 1513 1513 1512 1512 1511 1511 1511 1510 1509 1509 1509 1509 1509 1510 1510 1511 1511 1512 1513 1513 1514 1514 1515 1515 1516 1517 1518 1519 1520 1522 1523 1524 1526 1527 1528 1529 1529 1529 1529 1529 1530 1531 1532 1531 1531 1530
1510 1510 1511 1512 1512 1512 1513 1513 1513 1513 1513 1513 1513 1513 1513 1512 1511 1511 1510 1510 1509 1508 1507 1507 1507 1507 1506 1506 1506 1506 1507 1507 1508 1508 1509 1510 1510 1511 1511 1512 1512 1513 1513 1515 1515 1516 1518 1520 1521 1523 1524 1525 1526 1526 1526 1526 1524 1524 1527 1530 1530 1529 1529
1508 1508 1509 1510 1510 1510 1511 1511 1512 1512 1511 1512 1511 1511 1511 1510 1509 1509 1508 1507 1506 1505 1504 1504 1504 1504 1504 1503 1503 1503 1504 1505 1505 1505 1506 1506 1507 1508 1509 1509 1509 1509 1510 1511 1512 1512 1514 1516 1517 1519 1520 1521 1522 1522 1522 1521 1519 1518 1521 1526 1528 1528 1527
1506 1507 1508 1508 1508 1509 1509 1509 1510 1510 1510 1510 1509 1509 1509 1508 1507 1506 1505 1505 1504 1503 1502 1501 1501 1501 1501 1501 1501 1501 1501 1501 1502 1502 1502 1503 1504 1505 1506 1506 1506 1506 1506 1507 1508 1509 1510 1512 1513 1514 1515 1516 1517 1518 1517 1517 1515 1514 1515 1519 1524 1526 1525
1503 1505 1506 1506 1506 1507 1507 1508 1508 1508 1508 1508 1507 1507 1506 1506 1505 1504 1503 1502 1502 1501 1500 1499 1499 1498 1498 1498 1498 1498 1498 1498 1498 1498 1499 1500 1501 1502 1503 1503 1503 1503 1503 1504 1504 1505 1506 1507 1508 1510 1511 1512 1513 1513 1514 1514 1511 1510 1512 1514 1518 1523 1523
1501 1502 1503 1504 1505 1505 1505 1506 1506 1506 1506 1505 1505 1504 1504 1503 1502 1501 1500 1499 1499 1498 1497 1496 1496 1495 1495 1494 1494 1494 1494 1495 1495 1495 1495 1496 1498 1499 1499 1500 1500 1500 1501 1500 1500 1501 1502 1503 1504 1506 1507 1508 1509 1510 1511 1511 1508 1507 1510 1511 1514 1519 1520
1499 1500 1500 1501 1502 1503 1503 1503 1503 1503 1503 1503 1502 1502 1501 1500 1499 1498 1497 1496 1495 1495 1494 1493 1493 1493 1492 1491 1491 1491 1491 1491 1491 1491 1491 1492 1493 1494 1494 1495 1495 1497 1498 1497 1497 1497 1498 1499 1501 1502 1503 1503 1504 1506 1507 1507 1505 1505 1508 1509 1510 1514 1516
1496 1497 1498 1499 1500 1501 1501 1501 1501 1501 1500 1500 1499 1499 1498 1497 1497 1496 1495 1493 1492 1492 1491 1490 1490 1490 1489 1488 1488 1488 1487 1487 1487 1486 1487 1487 1488 1489 1490 1490 1490 1492 1493 1494 1494 1494 1495 1496 1497 1498 1499 1499 1500 1501 1502 1503 1503 1502 1504 1506 1507 1509 1511
1494 1495 1496 1497 1497 1498 1498 1498 1498 1498 1498 1497 1497 1496 1496 1495 1495 1494 1493 1491 1490 1489 1489 1488 1487 1486 1486 1485 1485 1484 1484 1484 1483 1482 1482 1482 1483 1485 1486 1486 1486 1487 1489 1489 1490 1491 1492 1493 1493 1493 1494 1495 1496 1497 1498 1499 1499 1499 1500 1502 1504 1505 1506
1492 1492 1493 1494 1495 1495 1496 1496 1496 1496 1495 1495 1495 1494 1494 1493 1492 1491 1490 1489 1488 1487 1487 1486 1484 1483 1483 1482 1481 1481 1481 1480 1480 1479 1478 1478 1479 1480 1481 1482 1483 1484 1485 1485 1486 1487 1488 1489 1489 1489 1490 1491 1491 1492 1493 1494 1494 1495 1496 1498 1499 1501 1503
1489 1490 1491 1492 1492 1493 1493 1493 1494 1493 1493 1493 1492 1492 1491 1491 1490 1489 1488 1487 1485 1484 1483 1482 1481 1480 1479 1479 1478 1478 1477 1477 1476 1475 1475 1474 1474 1475 1475 1476 1478 1480 1481 1481 1482 1483 1484 1485 1486 1486 1486 1487 1487 1487 1488 1489 1490 1491 1492 1494 1495 1497 1499
1487 1488 1489 1489 1490 1491 1491 1491 1491 1491 1491 1491 1490 1489 1489 1488 1487 1486 1485 1484 1482 1480 1479 1478 1477 1476 1476 1475 1475 1474 1473 1473 1472 1472 1471 1471 1470 1470 1470 1471 1473 1474 1476 1477 1478 1479 1480 1481 1482 1482 1482 1482 1483 1483 1483 1484 1485 1486 1488 1490 1491 1493 1494
1485 1486 1487 1487 1488 1489 1489 1489 1489 1489 1489 1488 1487 1486 1485 1484 1483 1482 1481 1479 1478 1477 1475 1474 1474 1473 1472 1472 1471 1471 1470 1469 1469 1468 1467 1467 1466 1466 1466 1466 1467 1468 1469 1471 1473 1474 1476 1477 1478 1478 1478 1479 1479 1479 1479 1480 1481 1482 1483 1486 1487 1488 1489
1483 1484 1485 1485 1486 1486 1487 1487 1487 1486 1486 1485 1484 1483 1482 1481 1480 1479 1477 1476 1475 1474 1473 1472 1471 1470 1469 1469 1468 1467 1467 1466 1465 1464 1464 1463 1463 1462 1461 1461 1461 1462 1463 1464 1467 1469 1471 1473 1474 1474 1475 1476 1475 1475 1475 1476 1477 1478 1480 1481 1483 1483 1484
1481 1482 1483 1483 1484 1484 1484 1484 1484 1484 1483 1482 1481 1479 1478 1477 1476 1475 1474 1473 1472 1471 1470 1469 1468 1468 1467 1466 1466 1465 1464 1463 1462 1461 1460 1459 1459 1458 1457 1457 1456 1456 1457 1458 1460 1462 1464 1467 1469 1469 1470 1472 1472 1472 1472 1472 1473 1474 1475 1476 1478 1479 1479
1479 1480 1481 1481 1482 1482 1482 1482 1481 1481 1480 1479 1478 1476 1475 1474 1473 1472 1470 1469 1469 1468 1467 1466 1465 1465 1464 1464 1463 1462 1460 1459 1458 1458 1457 1456 1455 1454 1453 1453 1451 1451 1452 1452 1454 1456 1458 1460 1462 1463 1465 1467 1468 1469 1468 1468 1468 1469 1470 1471 1472 1474 1475
1477 1478 1479 1479 1480 1480 1480 1479 1478 1478 1476 1476 1475 1474 1473 1472 1470 1469 1468 1466 1465 1464 1463 1463 1462 1462 1461 1460 1460 1458 1456 1455 1454 1453 1452 1451 1450 1449 1449 1448 1447 1447 1447 1446 1447 1449 1451 1453 1455 1457 1459 1462 1463 1464 1465 1464 1465 1466 1467 1467 1467 1468 1470
1475 1476 1477 1477 1478 1478 1477 1477 1476 1475 1474 1473 1472 1471 1470 1469 1468 1466 1465 1463 1462 1460 1459 1459 1458 1458 1457 1456 1456 1454 1452 1450 1448 1447 1446 1446 1445 1444 1443 1443 1442 1442 1442 1442 1443 1444 1444 1446 1449 1451 1453 1455 1457 1459 1460 1460 1461 1462 1463 1464 1464 1464 1464
1474 1475 1475 1476 1476 1475 1475 1474 1473 1472 1472 1471 1470 1468 1467 1466 1465 1463 1462 1460 1458 1457 1455 1454 1453 1453 1452 1451 1451 1449 1447 1445 1443 1441 1440 1440 1439 1438 1438 1437 1436 1436 1436 1437 1438 1439 1439 1441 1443 1445 1447 1449 1451 1453 1455 1456 1456 1457 1458 1460 1461 1460 1460
1473 1474 1474 1474 1474 1473 1472 1472 1471 1470 1469 1468 1467 1465 1464 1463 1462 1460 1459 1457 1455 1453 1452 1450 1449 1448 1447 1446 1445 1444 1442 1439 1437 1435 1434 1433 1433 1432 1432 1432 1430 1429 1430 1432 1433 1434 1436 1437 1438 1440 1442 1443 1444 1446 1448 1449 1450 1452 1453 1455 1456 1456 1457
1471 1472 1472 1472 1471 1471 1470 1469 1469 1468 1467 1465 1463 1462 1461 1460 1459 1457 1456 1454 1452 1449 1448 1447 1445 1444 1442 1441 1439 1438 1436 1433 1431 1428 1427 1426 1426 1425 1425 1426 1424 1423 1424 1424 1426 1429 1431 1433 1435 1437 1438 1438 1439 1440 1441 1442 1443 1445 1447 1449 1450 1451 1453
1470 1470 1470 1470 1469 1469 1468 1468 1468 1467 1465 1462 1460 1459 1458 1457 1456 1454 1453 1451 1448 1446 1444 1443 1441 1439 1437 1436 1434 1432 1429 1427 1425 1422 1420 1419 1419 1418 1418 1418 1417 1417 1417 1417 1419 1422 1425 1428 1429 1430 1431 1433 1434 1434 1435 1435 1437 1438 1440 1442 1445 1446 1448
1469 1469 1469 1468 1468 1468 1467 1466 1466 1465 1462 1460 1458 1457 1456 1454 1453 1451 1449 1447 1445 1442 1440 1438 1437 1435 1433 1431 1429 1426 1423 1421 1419 1416 1414 1414 1413 1412 1411 1411 1411 1411 1411 1411 1412 1416 1420 1423 1423 1423 1424 1426 1427 1429 1430 1430 1431 1432 1434 1437 1439 1441 1443
1467 1467 1467 1467 1466 1466 1465 1465 1463 1462 1460 1457 1455 1455 1453 1451 1450 1448 1446 1444 1441 1438 1435 1433 1432 1430 1428 1426 1424 1421 1418 1415 1412 1410 1408 1408 1407 1406 1405 1405 1405 1405 1404 1405 1407 1410 1413 1417 1418 1417 1418 1420 1421 1422 1424 1426 1426 1427 1428 1431 1433 1435 1437
1465 1465 1465 1465 1464 1464 1463 1462 1461 1459 1457 1455 1453 1452 1451 1449 1447 1444 1442 1440 1437 1434 1430 1428 1427 1425 1423 1421 1419 1415 1413 1409 1406 1404 1403 1402 1400 1400 1399 1398 1399 1399 1398 1399 1402 1404 1406 1410 1411 1411 1413 1415 1415 1417 1420 1421 1421 1422 1423 1426 1427 1429 1431
1463 1463 1463 1462 1462 1461 1461 1460 1459 1456 1454 1452 1451 1450 1448 1446 1443 1441 1438 1436 1433 1430 1426 1423 1422 1420 1418 1415 1413 1410 1407 1403 1400 1398 1397 1396 1394 1393 1392 1392 1391 1392 1392 1394 1396 1398 1400 1402 1403 1405 1407 1409 1409 1413 1416 1417 1417 1418 1419 1421 1422 1424 1426
1461 1460 1460 1460 1459 1459 1458 1458 1457 1454 1452 1450 1449 1447 1445 1443 1440 1437 1434 1432 1428 1425 1423 1420 1417 1415 1412 1409 1407 1404 1400 1397 1394 1393 1391 1390 1388 1387 1386 1386 1385 1386 1387 1388 1390 1392 1393 1395 1396 1398 1400 1401 1403 1408 1412 1413 1412 1413 1415 1417 1418 1420 1422
1458 1458 1458 1457 1457 1457 1456 1455 1454 1452 1450 1449 1447 1445 1443 1440 1437 1433 1430 1428 1424 1421 1418 1416 1412 1409 1406 1403 1400 1398 1394 1391 1390 1388 1386 1384 1382 1381 1380 1380 1380 1380 1382 1382 1384 1385 1386 1388 1389 1390 1391 1394 1399 1404 1407 1409 1409 1409 1411 1413 1415 1416 1418
1457 1457 1456 1456 1455 1455 1454 1453 1451 1449 1448 1447 1444 1442 1440 1437 1434 1430 1427 1423 1420 1417 1414 1410 1407 1404 1401 1397 1394 1392 1389 1386 1385 1383 1380 1378 1376 1376 1375 1374 1374 1375 1376 1377 1378 1380 1380 1381 1382 1382 1383 1388 1394 1398 1402 1404 1406 1406 1407 1409 1411 1413 1415
1457 1456 1456 1455 1454 1453 1452 1451 1449 1448 1446 1445 1443 1440 1437 1434 1431 1427 1423 1419 1415 1412 1408 1405 1401 1398 1395 1392 1388 1385 1383 1380 1379 1377 1374 1372 1370 1370 1369 1368 1369 1370 1370 1371 1372 1374 1374 1375 1375 1376 1379 1384 1389 1393 1396 1399 1401 1401 1403 1405 1407 1410 1412
Wind_Speed
8 8 8 7 8 10 11 12 12 11 8 4 6 7 5 5 7 8 9 10 11 10 9 7 8 11 13 14 14 14 17 19 22 25 28 30 30 31 30 30 30 27 26 27 24 17 11 11 15 18 21 21 22 23 23 22 22 22 24 25 22 22 25
8 5 4 4 5 7 8 9 10 10 10 7 5 5 5 6 5 6 8 10 12 11 12 10 8 8 11 14 15 15 16 18 21 22 24 26 28 29 31 31 32 31 31 32 30 26 21 17 14 13 15 17 20 22 24 26 24 24 25 25 23 23 23
7 3 3 5 5 6 6 7 8 8 8 8 8 6 6 7 7 8 8 8 10 12 14 14 13 12 11 12 15 16 17 18 20 22 23 24 25 27 31 32 33 33 34 36 36 32 28 25 22 17 13 13 17 20 24 26 25 26 28 26 25 26 24
9 7 7 7 6 5 4 5 6 5 5 6 8 8 9 10 10 11 11 10 10 11 12 13 14 14 13 12 13 15 18 19 19 20 21 23 24 26 29 32 34 35 35 37 39 36 33 32 30 27 23 18 18 20 21 25 26 28 29 27 27 27 26
12 11 8 8 8 7 7 6 6 4 4 5 6 6 7 10 11 12 14 14 14 14 14 14 14 15 16 16 15 15 17 18 19 20 21 22 24 26 28 30 32 34 34 36 38 38 37 36 33 33 33 28 23 22 20 21 25 28 29 28 27 28 27
14 13 11 10 10 9 8 7 6 6 5 5 6 7 9 11 13 14 15 16 17 17 18 18 18 17 18 18 19 19 18 18 19 20 22 22 23 25 27 29 31 33 34 34 37 38 37 35 32 32 34 31 27 26 22 19 21 27 30 28 27 28 25
16 15 14 13 12 11 9 9 9 9 8 8 9 11 13 14 15 16 18 18 19 20 21 21 21 20 20 19 20 21 21 21 21 21 24 24 24 25 26 28 31 33 34 34 35 38 37 34 32 32 32 30 29 31 29 24 21 22 26 27 26 26 25
18 17 16 14 14 13 11 11 11 11 11 11 11 13 15 17 18 19 21 22 23 24 24 23 22 21 20 21 22 22 23 23 23 23 25 25 26 27 26 27 29 32 35 35 37 38 38 38 37 36 34 31 30 31 32 31 26 20 21 23 24 25 26
18 18 17 15 16 15 13 12 12 13 13 13 13 14 16 18 20 22 23 25 26 26 25 23 20 19 20 22 23 23 23 23 23 23 24 26 27 28 28 27 29 32 33 34 37 39 40 41 41 42 41 37 34 32 32 33 30 26 22 19 20 24 27
19 19 17 16 17 16 14 13 13 14 14 15 15 16 17 19 21 23 25 25 25 23 22 20 17 17 19 23 24 23 22 22 22 22 23 25 26 27 29 28 30 31 31 31 34 38 41 42 42 42 43 43 40 37 34 33 33 33 29 23 18 20 25
19 19 18 18 18 17 15 15 14 15 15 15 16 17 19 21 22 24 24 23 22 21 20 17 16 17 18 22 24 24 23 21 22 24 25 24 23 23 26 28 29 31 31 31 31 34 37 40 41 39 40 42 42 41 39 36 35 36 35 33 25 19 21
18 19 19 19 19 18 17 16 16 16 16 16 17 19 21 22 23 23 24 23 22 22 20 17 16 18 19 20 22 25 25 24 24 24 25 25 23 21 22 24 28 30 31 31 32 32 33 36 38 38 39 41 42 43 42 38 37 36 35 37 32 22 19
17 19 19 20 20 19 18 18 17 17 17 18 20 21 22 22 23 24 24 25 24 23 23 20 18 18 19 20 21 23 25 26 26 24 23 24 23 22 21 22 25 27 29 31 32 32 33 33 34 35 37 40 41 43 43 40 40 40 36 35 37 32 23
17 18 19 20 20 19 19 18 18 18 18 19 20 21 22 23 23 24 25 26 26 25 24 22 19 17 18 21 22 22 24 25 26 26 25 24 24 24 23 22 23 24 25 28 31 32 33 32 32 33 35 38 40 43 44 43 44 44 41 38 39 40 32
17 18 19 20 19 19 19 18 18 18 19 20 21 21 22 22 23 24 25 26 26 25 23 22 19 17 18 20 22 24 24 25 25 26 27 28 29 29 27 26 24 23 24 26 28 31 32 33 34 36 37 38 39 41 43 45 46 46 45 42 41 43 38
18 19 20 20 19 18 17 17 17 18 19 20 20 20 21 22 22 24 25 25 24 22 22 22 20 19 19 20 23 25 26 26 26 26 28 30 33 33 32 31 28 25 24 26 27 28 31 33 34 37 38 38 40 41 42 44 46 47 46 44 41 40 36
19 20 20 20 18 17 16 16 16 17 18 18 19 19 20 22 23 24 25 24 22 21 21 22 22 21 22 23 25 26 27 28 28 28 29 30 32 34 35 35 34 29 26 27 27 27 28 31 34 36 37 38 40 42 43 44 46 47 46 43 41 38 33
19 19 19 18 17 15 15 15 15 16 17 18 18 20 21 22 23 23 23 24 24 24 23 22 23 24 25 26 27 27 27 28 29 30 31 31 32 33 35 37 38 36 33 30 30 29 28 29 33 36 37 39 40 41 43 44 44 45 45 43 40 37 35
19 18 18 17 15 15 14 14 15 15 16 17 19 21 23 24 24 24 24 25 26 26 25 24 25 28 29 28 29 29 29 30 31 32 32 32 32 33 34 36 38 40 39 37 35 34 31 29 30 33 37 39 40 41 42 43 43 44 45 44 41 38 38
18 17 16 15 14 14 14 14 14 15 16 18 22 25 26 26 25 25 25 24 23 22 23 24 26 28 29 29 29 30 30 30 30 32 33 33 33 33 34 35 36 38 40 40 38 38 37 34 31 31 34 37 39 39 40 41 43 44 42 42 41 39 38
17 15 15 15 14 14 13 13 14 16 19 22 25 26 26 24 23 23 23 21 20 20 21 22 23 25 26 27 26 27 28 29 29 30 31 33 35 35 35 36 36 37 39 40 39 38 38 38 36 34 32 33 36 38 39 40 41 42 42 41 40 40 39
16 15 15 15 14 13 13 14 16 20 23 25 25 24 23 21 22 22 21 20 21 22 22 23 24 25 25 25 24 24 25 27 27 27 29 30 32 34 35 36 37 37 38 39 40 40 39 39 40 40 37 33 32 34 37 39 39 41 42 42 40 40 41
17 16 15 14 12 12 13 15 18 22 24 23 23 22 20 19 20 21 20 20 21 22 23 24 24 24 25 26 27 28 29 30 30 30 31 31 31 32 32 34 37 38 38 38 39 41 43 42 42 44 45 41 36 32 32 36 38 40 41 41 40 40 40
15 14 13 11 11 12 14 17 19 22 22 20 19 19 19 19 19 19 20 21 22 23 24 24 24 24 25 27 29 32 35 36 37 37 37 36 36 36 35 34 34 36 39 40 40 40 42 45 46 46 47 47 44 39 35 34 35 37 39 40 40 39 39
13 12 10 10 11 13 15 17 19 19 19 17 18 19 19 20 20 20 22 23 23 24 25 26 26 27 27 28 30 32 35 37 39 40 40 39 39 39 40 40 38 37 38 38 37 38 40 42 45 47 48 48 48 47 44 40 37 36 37 38 39 40 41
12 10 10 11 12 14 16 17 17 17 16 17 19 20 20 20 21 22 24 24 25 26 26 27 28 28 28 29 30 33 36 38 40 41 42 42 42 41 41 42 42 42 41 37 34 34 37 39 40 42 45 47 48 49 50 50 48 44 41 39 38 40 42
10 10 10 11 13 14 15 16 15 15 15 17 20 22 23 23 23 23 25 26 28 28 28 28 29 29 29 30 31 33 36 39 42 44 45 45 44 44 42 40 40 43 44 42 38 34 33 35 36 35 38 41 44 45 47 52 55 54 50 45 42 42 42
8 8 10 12 13 14 15 15 14 14 16 19 22 25 25 25 24 25 26 28 29 31 31 30 29 29 31 32 33 34 36 38 41 45 47 49 49 48 47 44 43 43 43 44 44 39 33 30 31 33 34 37 41 41 41 45 51 56 57 53 49 48 45
8 8 11 12 13 13 14 14 14 15 19 22 25 25 24 24 25 26 27 28 29 31 32 31 31 31 32 33 34 36 37 39 41 44 46 47 46 46 47 47 47 47 45 45 45 44 39 32 30 34 35 34 36 40 42 42 42 47 54 57 55 52 48
8 10 11 11 12 13 13 14 15 17 21 22 22 22 23 25 27 27 27 28 30 32 33 33 33 33 33 34 35 37 39 40 42 44 45 44 42 41 42 43 44 45 47 47 45 43 43 39 36 37 38 35 32 34 39 40 39 39 43 48 51 53 51
9 10 11 11 11 12 14 15 16 17 20 22 22 22 24 26 27 26 27 28 30 31 33 34 33 33 32 32 34 37 39 41 42 44 44 44 43 42 42 41 41 42 45 47 45 42 42 42 42 42 41 38 35 33 32 36 37 37 38 38 40 46 50
9 9 10 10 11 13 14 16 16 18 20 22 24 24 24 25 26 26 27 29 29 31 33 33 32 31 32 33 36 39 40 42 44 44 43 44 44 43 43 42 41 42 44 45 45 43 42 43 46 47 43 40 39 35 31 33 36 36 35 35 35 38 45
8 8 9 10 12 14 15 15 16 19 21 23 24 24 23 25 28 29 28 29 29 30 31 32 32 32 33 34 34 36 38 41 43 43 42 43 44 44 44 43 43 43 43 43 42 43 44 44 46 49 47 42 40 36 30 32 37 35 33 32 32 33 38
8 9 10 11 13 14 14 14 16 19 21 22 22 23 25 27 29 29 29 29 30 30 29 31 32 33 34 35 32 31 34 38 40 41 42 42 43 43 43 43 43 43 42 42 41 40 42 43 44 47 51 49 45 39 30 26 30 34 32 30 30 30 34
9 9 10 11 12 13 14 14 17 20 22 21 21 23 25 28 30 30 30 30 31 30 30 32 33 35 37 38 36 32 32 35 37 38 39 41 42 42 43 43 43 41 40 39 39 38 40 41 41 44 51 53 49 44 34 23 23 29 30 29 29 30 33
9 9 10 11 12 14 14 14 18 21 21 19 21 24 27 28 30 32 34 34 33 33 33 36 38 39 39 39 38 35 32 34 36 37 39 41 42 43 43 43 41 40 39 37 36 36 37 37 37 39 46 52 51 46 39 29 25 28 30 29 29 31 33
7 8 9 11 12 12 13 14 17 19 19 20 22 26 30 32 34 36 37 38 37 36 38 40 42 43 41 40 39 37 34 32 33 36 38 41 44 45 45 43 40 39 38 37 35 33 33 33 33 32 36 46 52 49 42 35 29 29 31 31 31 33 34
Wind_Direction
214 257 301 327 351 1 6 13 14 13 15 354 322 323 314 285 267 266 263 255 249 243 240 247 260 262 253 250 252 253 254 250 248 248 246 244 241 236 232 227 224 227 240 251 255 261 271 261 241 234 235 235 237 240 237 233 229 228 230 232 232 228 227
223 262 304 305 339 356 359 6 10 11 14 13 353 335 326 321 304 287 281 272 264 256 249 242 238 250 251 247 244 243 250 254 252 250 249 246 243 241 237 231 229 231 235 241 247 249 251 259 259 249 246 241 235 238 241 239 233 229 231 232 229 224 227
227 218 214 247 295 337 346 354 2 5 2 0 360 353 341 344 345 336 329 308 290 282 274 264 249 242 242 248 248 240 241 250 255 255 252 248 245 242 240 235 234 234 234 236 240 243 243 247 251 250 252 248 243 244 244 242 235 228 229 229 227 225 224
234 232 235 250 275 309 320 329 342 350 341 334 339 343 339 341 344 339 337 332 317 308 297 282 268 260 254 250 253 249 246 249 253 257 257 252 246 242 241 240 239 238 238 238 237 239 241 244 248 249 249 250 260 268 259 246 237 231 229 226 226 231 230
249 251 250 247 255 281 298 305 319 326 315 313 321 325 321 322 327 327 326 325 322 320 315 301 286 277 268 259 254 250 249 251 253 258 264 261 253 247 243 242 241 240 242 242 238 238 243 246 249 253 254 252 256 270 273 258 245 235 229 224 225 233 238
254 254 249 248 255 273 289 292 299 301 289 281 283 285 291 301 311 315 316 318 317 314 312 308 299 289 282 273 265 256 248 246 247 252 260 263 260 255 249 244 243 242 244 244 240 239 241 243 244 246 250 249 248 257 268 272 259 237 226 222 224 231 237
251 249 249 251 255 264 272 277 287 295 291 282 280 284 291 300 307 309 309 309 308 306 304 302 298 292 286 279 270 263 257 250 246 245 250 256 260 259 254 249 248 248 247 246 242 240 237 237 238 238 242 245 250 258 263 269 267 242 223 220 223 226 231
249 247 246 245 249 257 264 273 282 290 292 291 288 287 291 298 305 308 310 309 307 304 300 296 292 287 280 274 270 266 263 259 254 249 247 250 255 258 257 256 255 251 249 248 245 241 238 236 237 238 241 246 253 259 258 258 261 250 231 222 219 221 226
247 246 243 238 244 254 263 271 279 286 291 292 290 289 291 297 304 308 310 311 309 304 296 289 285 281 272 264 264 266 264 259 255 252 250 250 250 251 253 256 257 253 249 249 248 245 243 241 241 241 242 244 248 254 255 252 252 252 248 235 222 220 223
242 241 239 237 244 254 262 268 276 282 287 290 291 292 294 298 303 307 310 313 310 303 294 286 282 280 272 262 257 259 261 258 252 249 250 252 251 252 252 252 256 257 254 253 251 249 247 246 247 246 245 244 244 246 250 250 249 250 249 245 237 230 224
242 239 237 239 247 256 262 268 274 279 284 289 291 292 294 299 303 307 310 310 305 296 288 282 279 277 273 267 258 253 253 254 252 247 245 247 249 254 257 254 254 257 257 256 254 251 248 247 248 249 248 247 244 242 243 247 251 250 246 245 247 246 231
243 240 238 241 249 256 261 267 273 278 283 288 291 295 298 303 306 307 307 307 303 293 283 274 271 269 269 270 267 259 252 249 251 251 248 247 244 247 255 256 255 256 257 256 255 254 252 248 247 249 249 247 244 241 242 245 250 249 246 245 245 244 235
244 242 241 243 249 255 260 267 273 278 285 291 296 301 304 307 308 307 306 306 306 299 286 274 267 266 265 266 268 267 260 252 249 250 251 250 245 243 251 254 252 254 257 256 254 255 253 247 245 247 248 246 242 241 242 243 247 248 246 245 244 242 237
245 243 244 247 250 255 261 268 275 282 291 298 303 306 308 311 310 308 305 304 307 304 293 280 270 266 266 264 265 268 267 261 253 248 248 247 242 238 242 246 248 250 253 256 257 255 251 246 246 248 249 247 243 241 242 242 245 248 248 247 247 246 243
243 242 245 250 253 258 265 273 281 290 298 304 307 309 310 311 308 305 304 302 303 303 295 286 276 269 267 266 264 265 266 267 261 253 249 247 243 237 234 235 239 243 244 248 253 254 252 248 247 248 249 250 247 245 243 242 243 245 247 248 248 247 247
238 241 244 250 256 262 268 279 288 296 303 306 306 305 305 304 301 300 301 299 296 295 291 286 280 273 270 269 269 269 268 268 267 262 255 250 246 243 239 234 233 236 239 243 247 252 254 252 249 249 250 251 251 248 245 243 241 241 243 245 246 244 242
233 239 244 249 256 264 272 282 289 296 301 302 300 299 298 297 296 296 297 295 289 285 283 279 274 271 271 272 274 274 272 270 268 266 263 258 252 247 243 240 236 234 237 242 246 248 251 253 252 251 251 251 250 248 246 243 240 239 239 240 241 239 232
229 236 243 250 256 263 272 281 289 293 297 298 295 294 294 291 291 292 291 287 282 277 273 270 270 272 273 274 274 272 272 270 268 266 265 264 261 254 248 244 241 238 236 238 244 246 248 251 251 251 252 250 248 248 246 242 238 236 235 235 237 233 226
227 233 240 249 256 262 272 281 287 290 291 293 292 290 289 288 286 285 282 279 277 275 272 270 272 276 276 275 274 272 271 270 269 268 266 265 264 260 255 249 245 241 238 238 242 243 244 248 250 251 252 251 249 246 242 239 237 236 233 230 231 229 225
228 232 237 245 252 259 271 277 281 284 285 286 288 288 289 288 287 285 282 280 278 277 277 277 278 279 278 277 275 274 273 272 271 269 267 265 265 264 261 257 251 245 240 238 241 244 244 245 247 250 252 254 254 249 244 242 240 237 232 226 225 226 225
225 230 233 239 248 257 268 275 278 284 287 289 291 292 291 289 287 286 285 282 281 281 282 283 283 283 282 279 278 276 275 275 274 273 270 268 266 265 264 262 258 252 245 240 238 240 244 244 246 249 252 254 256 254 253 250 244 238 233 228 225 225 224
215 221 229 239 252 263 271 279 285 290 293 295 295 293 290 287 284 281 280 280 281 281 281 280 281 282 282 280 278 276 273 271 271 272 273 272 270 269 267 265 262 259 254 248 242 238 238 241 244 245 247 250 253 255 255 251 247 243 237 231 226 223 221
215 223 234 247 261 270 277 284 289 293 295 295 295 294 291 289 287 284 283 284 285 284 282 281 280 279 279 276 274 273 272 271 270 269 268 267 267 268 267 266 265 263 260 257 250 242 237 236 239 242 242 243 245 250 253 251 248 244 240 235 229 223 219
221 231 243 253 262 270 279 284 287 292 295 296 295 294 291 288 288 288 288 287 287 285 283 282 280 278 277 275 275 276 277 279 278 275 271 267 264 263 262 262 263 263 261 259 256 250 242 237 237 240 242 242 241 241 245 250 250 247 242 239 234 229 226
216 226 236 245 257 270 278 282 287 292 294 293 292 290 288 287 287 288 289 289 288 286 283 282 282 279 276 274 273 275 278 280 280 278 274 269 267 264 261 260 259 258 260 261 260 257 252 245 241 240 241 243 243 240 240 244 248 249 248 244 237 232 231
208 219 231 247 265 278 282 284 287 289 288 289 289 287 286 289 290 289 291 292 290 289 288 288 288 285 281 276 273 272 272 272 273 274 272 270 268 266 264 263 260 256 256 256 257 259 258 255 250 245 244 245 245 244 242 241 243 245 248 252 247 239 235
208 221 239 262 278 284 285 286 287 287 288 289 288 286 288 291 293 293 295 295 293 291 290 290 291 290 286 283 280 278 274 270 269 268 268 268 267 264 263 261 259 258 256 252 250 253 259 261 258 253 252 250 249 249 246 243 243 242 243 248 250 247 243
214 232 256 274 282 280 279 286 290 289 289 289 288 290 294 296 296 296 296 295 293 291 290 291 291 290 289 287 285 282 279 276 272 269 268 268 267 264 262 259 257 258 258 254 247 243 245 254 257 255 255 254 252 252 250 248 246 243 241 241 244 249 249
225 250 270 275 274 272 273 283 290 289 289 291 292 293 294 294 296 296 295 294 292 291 291 291 290 288 287 285 283 281 279 277 275 272 270 270 269 266 263 259 257 255 255 256 252 243 236 236 242 246 249 251 251 250 251 253 252 248 244 242 241 244 247
246 262 270 269 268 271 275 280 286 291 294 295 294 293 293 295 297 296 294 293 292 289 289 289 287 286 286 284 282 281 280 279 277 273 270 269 267 264 263 260 257 255 253 254 254 250 241 233 232 239 244 246 249 250 249 252 256 254 250 247 244 243 244
257 262 265 268 271 274 279 283 289 294 294 294 296 297 297 298 296 294 293 292 291 289 288 289 289 290 289 288 286 284 283 281 279 275 271 268 265 263 262 261 257 255 254 252 251 253 249 238 232 237 243 246 249 250 249 250 253 255 254 252 248 244 242
262 265 266 272 278 279 283 289 296 296 293 296 302 302 299 297 295 294 294 293 292 291 290 291 294 294 291 289 287 285 284 282 279 276 272 269 265 263 261 260 258 256 256 254 250 250 251 244 235 235 241 248 251 250 249 250 251 254 256 255 252 247 240
273 277 275 276 282 284 287 294 300 300 299 303 305 303 300 300 298 297 296 294 293 293 293 295 298 297 296 295 292 287 283 280 278 276 273 269 265 263 261 259 258 257 257 257 254 252 252 249 240 234 235 242 247 246 248 252 251 252 255 255 254 250 242
279 284 281 284 288 290 295 301 302 302 303 306 307 306 306 304 301 298 297 297 297 297 297 299 301 302 304 308 306 295 284 280 278 276 273 269 265 262 261 259 259 260 259 258 258 259 259 255 248 239 232 232 236 237 242 255 255 250 251 253 250 246 241
314 309 304 301 299 300 303 302 299 301 304 306 306 307 308 308 305 302 300 301 301 300 301 302 304 306 309 311 311 303 289 282 280 276 272 267 263 261 260 260 260 260 261 259 259 262 263 261 256 245 232 227 228 230 234 250 260 250 247 250 247 240 235
328 317 309 304 301 303 301 297 300 306 308 306 305 309 313 315 312 308 305 304 303 303 305 307 309 310 312 312 312 308 296 284 279 275 270 266 262 261 261 260 259 258 258 259 260 263 262 259 257 250 236 226 224 227 231 242 254 250 244 245 243 235 229
321 313 309 308 308 307 302 300 307 313 309 304 308 314 318 320 319 317 313 308 306 307 308 309 311 314 315 315 313 311 306 293 279 272 269 265 260 259 258 257 258 257 254 255 258 259 255 251 252 254 243 227 221 225 232 240 244 244 242 240 237 231 227